Weather History for Robstown, TX

Change the Weather History Date:

Thursday, April 24, 2014

  Actual Average (KCRP) Record (KCRP)
Temperature  
Mean Temperature 78 °F 74 °F  
Max Temperature 86 °F 83 °F 94 °F (1953)
Min Temperature 71 °F 65 °F 49 °F (1983)
Degree Days  
Heating Degree Days 0 0  
Month to date heating degree days 15  
Since 1 July heating degree days 896  
Cooling Degree Days 14 9  
Month to date cooling degree days 178  
Year to date cooling degree days 369  
Growing Degree Days 28 (Base 50)    
Moisture  
Dew Point 69 °F    
Average Humidity 75    
Maximum Humidity 91    
Minimum Humidity 53    
Precipitation  
Precipitation 0.00 in 0.06 in 1.46 in (1926)
Month to date precipitation 1.41  
Year to date precipitation 6.77  
Snow  
Snow 0.00 in - - ()
Month to date snowfall  
Since 1 July snowfall  
Snow Depth -    
Sea Level Pressure  
Sea Level Pressure 29.82 in    
Wind  
Wind Speed 12 mph (SE)    
Max Wind Speed 17 mph    
Max Gust Speed 23 mph    
Visibility 10 miles    
Events      
T = Trace of Precipitation, MM = Missing Value Source: NWS Daily Summary

Daily Weather History Graph

Daily Weather History Graph

Search for Another Location

Airport:

Trip Planner

Search our weather history database for the weather conditions in past years. The results will help you decide how hot, cold, wet, or windy it might be!

Date:

Astronomy

Apr. 24, 2014 Rise Set
Actual Time 6:57 AM CDT 8:00 PM CDT
Civil Twilight 6:32 AM CDT 8:25 PM CDT
Nautical Twilight 6:04 AM CDT 8:54 PM CDT
Astronomical Twilight 5:34 AM CDT 9:23 PM CDT
Moon 3:42 AM CDT (4/24) 3:41 PM CDT (4/24)
Length of Visible Light 13h 52m
Length of Day
13h 03m
Waning Crescent, 24% of the Moon is Illuminated
Apr 24
Waning Crescent
Apr 29
New
May 6
First Quarter
May 14
Full
May 21
Last Quarter

Hourly Weather History & Observations

Time (CDT) Temp. Heat Index Dew Point Humidity Pressure Visibility Wind Dir Wind Speed Gust Speed Precip Events Conditions
12:15 AM 73.4 °F - 68.5 °F 85% 29.81 in 10.0 mi SE 17.3 mph 23.0 mph N/A   Overcast
12:35 AM 73.4 °F - 68.5 °F 85% 29.84 in 10.0 mi SSE 11.5 mph 18.4 mph N/A   Overcast
12:55 AM 73.4 °F - 68.2 °F 84% 29.84 in 10.0 mi SE 15.0 mph 18.4 mph N/A   Overcast
1:15 AM 73.4 °F - 68.0 °F 83% 29.81 in 10.0 mi SSE 15.0 mph - N/A   Mostly Cloudy
1:35 AM 72.9 °F - 67.6 °F 84% 29.82 in 10.0 mi SE 10.4 mph - N/A   Scattered Clouds
1:55 AM 72.7 °F - 68.0 °F 85% 29.80 in 10.0 mi SSE 12.7 mph - N/A   Scattered Clouds
2:15 AM 72.7 °F - 67.3 °F 83% 29.79 in 10.0 mi SSE 16.1 mph 21.9 mph N/A   Scattered Clouds
2:35 AM 72.5 °F - 67.1 °F 83% 29.79 in 10.0 mi SSE 12.7 mph - N/A   Clear
2:55 AM 72.5 °F - 67.1 °F 83% 29.77 in 10.0 mi SSE 15.0 mph 19.6 mph N/A   Clear
3:15 AM 72.5 °F - 67.5 °F 84% 29.76 in 10.0 mi SSE 16.1 mph - N/A   Scattered Clouds
3:35 AM 72.5 °F - 68.0 °F 86% 29.76 in 10.0 mi SSE 15.0 mph - N/A   Scattered Clouds
3:55 AM 72.5 °F - 68.2 °F 86% 29.75 in 10.0 mi SSE 13.8 mph - N/A   Clear
4:15 AM 72.1 °F - 68.0 °F 87% 29.75 in 10.0 mi SSE 12.7 mph 17.3 mph N/A   Clear
4:35 AM 71.8 °F - 68.5 °F 89% 29.74 in 10.0 mi SSE 15.0 mph - N/A   Scattered Clouds
4:55 AM 72.1 °F - 68.9 °F 89% 29.75 in 10.0 mi SSE 9.2 mph - N/A   Mostly Cloudy
5:15 AM 72.5 °F - 68.9 °F 88% 29.76 in 10.0 mi SE 8.1 mph - N/A   Overcast
5:35 AM 72.5 °F - 68.9 °F 88% 29.77 in 10.0 mi SE 6.9 mph - N/A   Overcast
5:55 AM 72.5 °F - 68.9 °F 88% 29.79 in 10.0 mi SE 5.8 mph - N/A   Overcast
6:15 AM 72.7 °F - 68.9 °F 88% 29.79 in 10.0 mi SE 5.8 mph - N/A   Overcast
6:35 AM 72.5 °F - 68.7 °F 88% 29.80 in 10.0 mi SE 4.6 mph - N/A   Overcast
6:55 AM 72.5 °F - 68.4 °F 87% 29.81 in 10.0 mi SE 5.8 mph - N/A   Overcast
7:15 AM 72.5 °F - 68.7 °F 88% 29.81 in 10.0 mi SE 5.8 mph - N/A   Overcast
7:35 AM 72.5 °F - 68.9 °F 88% 29.82 in 10.0 mi SE 6.9 mph - N/A   Mostly Cloudy
7:55 AM 73.4 °F - 69.1 °F 86% 29.82 in 10.0 mi SE 8.1 mph - N/A   Clear
8:15 AM 73.9 °F - 69.3 °F 85% 29.83 in 10.0 mi SE 8.1 mph - N/A   Clear
8:35 AM 74.5 °F - 69.3 °F 84% 29.84 in 10.0 mi SE 10.4 mph - N/A   Scattered Clouds
8:55 AM 76.1 °F - 69.4 °F 80% 29.84 in 10.0 mi SE 10.4 mph - N/A   Scattered Clouds
9:15 AM 76.8 °F - 68.4 °F 75% 29.84 in 10.0 mi SSE 10.4 mph - N/A   Mostly Cloudy
9:35 AM 78.3 °F - 67.8 °F 70% 29.84 in 10.0 mi SSE 15.0 mph - N/A   Mostly Cloudy
9:55 AM 79.2 °F - 67.6 °F 68% 29.84 in 10.0 mi SSE 13.8 mph 20.7 mph N/A   Mostly Cloudy
10:15 AM 80.6 °F 83.1 °F 67.5 °F 64% 29.84 in 10.0 mi SSE 17.3 mph 20.7 mph N/A   Scattered Clouds
10:35 AM 81.1 °F 83.7 °F 67.3 °F 63% 29.86 in 10.0 mi South 13.8 mph 20.7 mph N/A   Scattered Clouds
10:55 AM 81.3 °F 83.8 °F 67.3 °F 62% 29.86 in 10.0 mi SSE 12.7 mph - N/A   Mostly Cloudy
11:15 AM 82.0 °F 84.7 °F 67.5 °F 61% 29.87 in 10.0 mi South 12.7 mph - N/A   Overcast
11:35 AM 83.5 °F 86.2 °F 67.5 °F 58% 29.86 in 10.0 mi SSE 15.0 mph - N/A   Overcast
11:55 AM 82.0 °F 84.9 °F 67.6 °F 62% 29.84 in 10.0 mi SSE 11.5 mph 16.1 mph N/A   Overcast
12:15 PM 84.0 °F 87.0 °F 68.0 °F 58% 29.84 in 10.0 mi SSE 10.4 mph - N/A   Overcast
12:35 PM 84.0 °F 87.3 °F 68.4 °F 59% 29.84 in 10.0 mi SE 9.2 mph - N/A   Overcast
12:55 PM 84.6 °F 87.6 °F 68.0 °F 57% 29.84 in 10.0 mi SSE 10.4 mph - N/A   Overcast
1:15 PM 83.8 °F 87.0 °F 68.0 °F 59% 29.84 in 10.0 mi SE 8.1 mph - N/A   Overcast
1:35 PM 85.6 °F 88.8 °F 68.0 °F 55% 29.83 in 10.0 mi SE 5.8 mph - N/A   Overcast
1:55 PM 86.7 °F 89.9 °F 67.8 °F 53% 29.82 in 10.0 mi South 8.1 mph - N/A   Overcast
2:15 PM 84.9 °F 88.8 °F 69.3 °F 59% 29.81 in 10.0 mi East 12.7 mph 21.9 mph N/A   Overcast
2:35 PM 84.2 °F 88.1 °F 69.4 °F 61% 29.81 in 10.0 mi ESE 16.1 mph 21.9 mph N/A   Overcast
2:55 PM 83.8 °F 87.8 °F 69.4 °F 62% 29.81 in 10.0 mi ESE 12.7 mph - N/A   Overcast
3:35 PM - - - N/A% 29.81 in 10.0 mi ESE 13.8 mph - N/A   Overcast
3:55 PM 83.1 °F 86.8 °F 69.3 °F 63% 29.81 in 10.0 mi ESE 12.7 mph - N/A   Unknown
4:15 PM 81.9 °F 85.2 °F 69.1 °F 65% 29.81 in 10.0 mi ESE 15.0 mph - N/A   Overcast
4:35 PM 83.3 °F 87.1 °F 69.4 °F 63% 29.81 in 10.0 mi ESE 16.1 mph - N/A   Overcast
4:55 PM 83.7 °F 87.5 °F 69.3 °F 62% 29.81 in 10.0 mi SE 12.7 mph - N/A   Mostly Cloudy
5:15 PM 82.6 °F 86.1 °F 69.4 °F 64% 29.81 in 10.0 mi SE 12.7 mph - N/A   Mostly Cloudy
5:35 PM 83.3 °F 87.1 °F 69.4 °F 63% 29.80 in 10.0 mi SE 12.7 mph - N/A   Mostly Cloudy
5:55 PM 83.1 °F 86.8 °F 69.4 °F 63% 29.81 in 10.0 mi ESE 11.5 mph - N/A   Clear
6:15 PM 83.3 °F 86.9 °F 69.3 °F 62% 29.81 in 10.0 mi SE 11.5 mph 17.3 mph N/A   Clear
6:35 PM 82.4 °F 85.8 °F 69.3 °F 64% 29.81 in 10.0 mi ESE 11.5 mph - N/A   Clear
6:55 PM 81.7 °F 84.9 °F 69.1 °F 65% 29.82 in 10.0 mi ESE 12.7 mph - N/A   Clear
7:15 PM 81.1 °F 84.4 °F 69.1 °F 67% 29.82 in 10.0 mi SE 12.7 mph - N/A   Clear
7:35 PM 79.9 °F - 69.1 °F 69% 29.82 in 10.0 mi ESE 11.5 mph - N/A   Clear
7:55 PM 78.6 °F - 68.9 °F 72% 29.83 in 10.0 mi SE 11.5 mph - N/A   Clear
8:15 PM 77.7 °F - 69.1 °F 75% 29.84 in 10.0 mi SE 11.5 mph - N/A   Clear
8:35 PM 76.6 °F - 68.9 °F 77% 29.84 in 10.0 mi SE 10.4 mph - N/A   Clear
8:55 PM 76.1 °F - 69.3 °F 79% 29.85 in 10.0 mi SE 11.5 mph - N/A   Clear
9:15 PM 75.2 °F - 69.3 °F 82% 29.86 in 10.0 mi SE 9.2 mph - N/A   Clear
9:35 PM 74.7 °F - 69.4 °F 84% 29.86 in 10.0 mi SE 8.1 mph - N/A   Clear
9:55 PM 74.3 °F - 69.8 °F 86% 29.87 in 10.0 mi SE 8.1 mph - N/A   Clear
10:15 PM 73.6 °F - 69.8 °F 88% 29.88 in 10.0 mi SE 6.9 mph - N/A   Clear
10:35 PM 73.0 °F - 69.6 °F 89% 29.88 in 10.0 mi SE 4.6 mph - N/A   Clear
10:55 PM 72.5 °F - 69.3 °F 90% 29.89 in 10.0 mi ESE 3.5 mph - N/A   Clear
11:15 PM 71.8 °F - 69.1 °F 91% 29.90 in 10.0 mi East 4.6 mph - N/A   Scattered Clouds
11:35 PM 72.7 °F - 70.0 °F 91% 29.90 in 10.0 mi East 5.8 mph - N/A   Overcast